カタログに戻る

STARLINK-3180

運用中通信VLEO
NORAD 51137·PAYLOAD·🇺🇸 United States

打ち上げ Jan 19, 2022 から Cape Canaveral Space Force Station

Loading…

次のパス (今後24時間)

TLE

最新Source: CelesTrak SupGP

元期: Sep 14, 2026, 21:25 UTC

1 51137C 22005AK  26257.89284722 -.00030729  00000+0 -90809-3 0  2578
2 51137  53.1568 155.6060 0001341  91.2062 339.1911 15.34399007    18

AllMySatでSTARLINK-3180をリアルタイム追跡

Download on the App Store